Tracking 20942 objects as of 4-Jul-2020
HD Live streaming from Space Station
objects crossing your sky now

COSMOS 1275 DEB

Track COSMOS 1275 DEB now!
10-day predictions


NORAD ID: 42187
Int'l Code: 1981-053TB
Perigee: 874.7 km
Apogee: 968.1 km
Inclination: 83.0 °
Period: 103.3 minutes
Semi major axis: 7292 km
RCS: Unknown
Launch date: June 4, 1981
Source: Commonwealth of Independent States (former USSR) (CIS)
Launch site: PLESETSK MISSILE AND SPACE COMPLEX (PKMTR)

Note: This is SATELLITE DEBRIS
aabbcc
Your satellite tracking list
Your tracking list is empty




NASA's NSSDC Master Catalog

Two Line Element Set (TLE):
1 42187U 81053TB  20185.85332477  .00000492  00000-0  35346-3 0  9993
2 42187  82.9706  29.6373 0064022 190.3071 169.6788 13.94105176336139
Source of the keplerian elements: AFSPC